Walhalla, ND

1:21 AM CDT on March 25, 2017 (GMT -0500)
Walhalla

Weather History for K96D - December, 2012

Change the Weather History Date:

Tuesday, December 25, 2012

  Actual Average (KGAF) Record (KGAF)
Temperature  
Mean Temperature -8 °F -  
Max Temperature -2 °F 12 °F 41 °F (2011)
Min Temperature -13 °F -3 °F -30 °F (1948)
Degree Days  
Heating Degree Days 72    
Moisture  
Dew Point -14 °F    
Average Humidity 74    
Maximum Humidity 84    
Minimum Humidity 65    
Precipitation  
Precipitation 0.00 in - - ()
Sea Level Pressure  
Sea Level Pressure 30.43 in    
Wind  
Wind Speed 6 mph (West)    
Max Wind Speed 9 mph    
Max Gust Speed -    
Visibility 10 miles    
Events      
Averages and records for this station are not official NWS values.
T = Trace of Precipitation, MM = Missing Value Source: NWS Daily Summary

Daily Weather History Graph

Daily Weather History Graph

Search for Another Location

Airport or City:

Trip Planner

Search our weather history database for the weather conditions in past years. The results will help you decide how hot, cold, wet, or windy it might be!

Date:

Astronomy

Dec. 25, 2012 Rise Set
Actual Time 8:24 AM CST 4:39 PM CST
Civil Twilight 7:47 AM CST 5:16 PM CST
Nautical Twilight 7:06 AM CST 5:57 PM CST
Astronomical Twilight 6:28 AM CST 6:35 PM CST
Moon 2:52 PM CST 5:54 AM CST
Length of Visible Light 9h 29m
Length of Day
8h 14m
Waxing Gibbous, 94% of the Moon is Illuminated
Dec 25
Waxing Gibbous
Dec 28
Full
Jan 4
Last Quarter
Jan 11
New
Jan 18
First Quarter

Hourly Weather History & Observations

Time (CST) Temp. Windchill Dew Point Humidity Pressure Visibility Wind Dir Wind Speed Gust Speed Precip Events Conditions
12:15 AM -11.2 °F -23.0 °F -14.8 °F 84% 30.39 in - West 4.6 mph - N/A   Unknown
12:35 AM -13.0 °F -25.1 °F -16.6 °F 84% 30.40 in - West 4.6 mph - N/A   Unknown
12:55 AM -11.2 °F -23.0 °F -16.6 °F 77% 30.40 in - West 4.6 mph - N/A   Clear
1:15 AM -11.2 °F -23.0 °F -16.6 °F 77% 30.41 in - West 4.6 mph - N/A   Clear
1:35 AM - - - N/A% 30.40 in - West 5.8 mph - N/A   Unknown
1:55 AM -11.2 °F -24.8 °F -14.8 °F 84% 30.41 in - WNW 5.8 mph - N/A   Unknown
2:15 AM -11.2 °F -24.8 °F -14.8 °F 84% 30.41 in 10.0 mi WNW 5.8 mph - N/A   Clear
2:35 AM -11.2 °F -27.8 °F -14.8 °F 84% 30.42 in 10.0 mi NW 8.1 mph - N/A   Clear
2:55 AM -9.4 °F -24.3 °F -13.0 °F 84% 30.42 in 10.0 mi WNW 6.9 mph - N/A   Clear
3:15 AM -9.4 °F -22.7 °F -14.8 °F 77% 30.43 in 10.0 mi WNW 5.8 mph - N/A   Clear
3:35 AM -9.4 °F -25.6 °F -14.8 °F 77% 30.43 in 10.0 mi WNW 8.1 mph - N/A   Clear
3:55 AM -11.2 °F -24.8 °F -16.6 °F 77% 30.44 in 10.0 mi WNW 5.8 mph - N/A   Clear
4:15 AM -9.4 °F -25.6 °F -14.8 °F 77% 30.44 in 10.0 mi WNW 8.1 mph - N/A   Clear
4:35 AM -9.4 °F -22.7 °F -14.8 °F 77% 30.44 in 10.0 mi WNW 5.8 mph - N/A   Clear
4:55 AM -9.4 °F -24.3 °F -16.6 °F 71% 30.44 in 10.0 mi WNW 6.9 mph - N/A   Clear
5:15 AM -9.4 °F -25.6 °F -16.6 °F 71% 30.43 in 10.0 mi WNW 8.1 mph - N/A   Clear
5:35 AM -9.4 °F -22.7 °F -16.6 °F 71% 30.44 in 10.0 mi WNW 5.8 mph - N/A   Clear
5:55 AM -11.2 °F -27.8 °F -16.6 °F 77% 30.44 in 10.0 mi WNW 8.1 mph - N/A   Clear
6:15 AM -11.2 °F -27.8 °F -16.6 °F 77% 30.45 in 10.0 mi WNW 8.1 mph - N/A   Partly Cloudy
6:35 AM -11.2 °F -26.4 °F -16.6 °F 77% 30.46 in 10.0 mi WNW 6.9 mph - N/A   Mostly Cloudy
6:55 AM -11.2 °F -24.8 °F -16.6 °F 77% 30.46 in 10.0 mi WNW 5.8 mph - N/A   Partly Cloudy
7:15 AM -11.2 °F -27.8 °F -18.4 °F 70% 30.45 in 10.0 mi WNW 8.1 mph - N/A   Clear
7:35 AM -11.2 °F -24.8 °F -16.6 °F 77% 30.45 in 10.0 mi West 5.8 mph - N/A   Clear
7:55 AM -11.2 °F -26.4 °F -18.4 °F 70% 30.46 in 10.0 mi WNW 6.9 mph - N/A   Clear
8:15 AM -13.0 °F -25.1 °F -18.4 °F 77% 30.46 in 10.0 mi West 4.6 mph - N/A   Clear
8:35 AM -13.0 °F -25.1 °F -18.4 °F 77% 30.46 in - West 4.6 mph - N/A   Scattered Clouds
8:55 AM - - - N/A% 30.46 in - West 5.8 mph - N/A   Unknown
9:15 AM -11.2 °F -24.8 °F -18.4 °F 70% 30.47 in - West 5.8 mph - N/A   Partly Cloudy
9:35 AM -11.2 °F -24.8 °F -16.6 °F 77% 30.47 in - West 5.8 mph - N/A   Clear
9:55 AM -9.4 °F -22.7 °F -16.6 °F 71% 30.47 in - West 5.8 mph - N/A   Clear
10:15 AM -9.4 °F -24.3 °F -16.6 °F 71% 30.48 in - West 6.9 mph - N/A   Clear
10:35 AM -9.4 °F -25.6 °F -16.6 °F 71% 30.48 in - West 8.1 mph - N/A   Clear
10:55 AM -9.4 °F -22.7 °F -16.6 °F 71% 30.48 in - West 5.8 mph - N/A   Clear
11:15 AM -7.6 °F -23.4 °F -16.6 °F 65% 30.48 in - West 8.1 mph - N/A   Clear
11:35 AM -7.6 °F -22.1 °F -14.8 °F 71% 30.47 in - West 6.9 mph - N/A   Clear
11:55 AM -7.6 °F -20.6 °F -14.8 °F 71% 30.46 in 10.0 mi WNW 5.8 mph - N/A   Clear
12:15 PM -5.8 °F -18.4 °F -13.0 °F 71% 30.45 in 10.0 mi WNW 5.8 mph - N/A   Clear
12:35 PM -5.8 °F -16.7 °F -13.0 °F 71% 30.45 in 10.0 mi West 4.6 mph - N/A   Clear
12:55 PM -4.0 °F -14.6 °F -13.0 °F 65% 30.44 in 10.0 mi West 4.6 mph - N/A   Clear
1:15 PM -4.0 °F -14.6 °F -13.0 °F 65% 30.44 in - West 4.6 mph - N/A   Clear
1:35 PM -4.0 °F -17.8 °F -13.0 °F 65% 30.43 in - WSW 6.9 mph - N/A   Clear
1:55 PM - - - N/A% 30.43 in - WSW 6.9 mph - N/A   Unknown
2:15 PM - - - N/A% 30.42 in - WSW 9.2 mph - N/A   Unknown
2:35 PM -4.0 °F -17.8 °F -11.2 °F 71% 30.42 in - WSW 6.9 mph - N/A   Clear
2:55 PM - - - N/A% 30.41 in - West 4.6 mph - N/A   Unknown
3:15 PM -2.2 °F -14.2 °F -11.2 °F 66% 30.42 in - West 5.8 mph - N/A   Clear
3:35 PM -2.2 °F -12.5 °F -11.2 °F 66% 30.41 in - West 4.6 mph - N/A   Clear
3:55 PM -2.2 °F -12.5 °F -11.2 °F 66% 30.41 in - WSW 4.6 mph - N/A   Clear
4:15 PM - - - N/A% 30.41 in - West 5.8 mph - N/A   Unknown
4:35 PM -4.0 °F -14.6 °F -11.2 °F 71% 30.41 in - West 4.6 mph - N/A   Clear
4:55 PM -4.0 °F -16.3 °F -11.2 °F 71% 30.41 in - West 5.8 mph - N/A   Clear
5:15 PM -5.8 °F - -13.0 °F 71% 30.41 in - Calm Calm - N/A   Clear
5:35 PM -5.8 °F - -13.0 °F 71% 30.41 in - Calm Calm - N/A   Clear
5:55 PM -7.6 °F - -13.0 °F 77% 30.41 in - Calm Calm - N/A   Clear
6:15 PM -7.6 °F -18.8 °F -13.0 °F 77% 30.41 in - West 4.6 mph - N/A   Clear
6:35 PM -5.8 °F - -11.2 °F 77% 30.41 in - Calm Calm - N/A   Clear
6:55 PM -7.6 °F -16.5 °F -13.0 °F 77% 30.41 in - West 3.5 mph - N/A   Clear
7:15 PM -7.6 °F -16.5 °F -13.0 °F 77% 30.40 in - WSW 3.5 mph - N/A   Clear
7:35 PM -7.6 °F -16.5 °F -13.0 °F 77% 30.40 in - West 3.5 mph - N/A   Clear
7:55 PM -7.6 °F -20.6 °F -13.0 °F 77% 30.40 in - West 5.8 mph - N/A   Clear
8:15 PM -7.6 °F -23.4 °F -13.0 °F 77% 30.40 in - West 8.1 mph - N/A   Clear
8:35 PM -7.6 °F -20.6 °F -13.0 °F 77% 30.40 in - West 5.8 mph - N/A   Clear
8:55 PM -7.6 °F -16.5 °F -13.0 °F 77% 30.39 in - WNW 3.5 mph - N/A   Partly Cloudy
9:15 PM -7.6 °F -20.6 °F -13.0 °F 77% 30.40 in - West 5.8 mph - N/A   Clear
10:15 PM - - - N/A% 30.40 in - Calm Calm - N/A   Unknown
10:35 PM -5.8 °F -14.5 °F - N/A% 30.39 in - WSW 3.5 mph - N/A   Mostly Cloudy
10:55 PM -4.0 °F -12.4 °F -11.2 °F 71% 30.39 in - WSW 3.5 mph - N/A   Mostly Cloudy
11:15 PM -4.0 °F -12.4 °F -11.2 °F 71% 30.39 in - West 3.5 mph - N/A   Overcast
11:35 PM -4.0 °F -17.8 °F -11.2 °F 71% 30.39 in - West 6.9 mph - N/A   Overcast
11:55 PM -4.0 °F -14.6 °F -11.2 °F 71% 30.38 in - West 4.6 mph - N/A   Overcast